VA3BOO Weather Reports


time (UTC)temp
F
wind
direction
speed
knots
gust
knots
rain 1hr
in
rain 24hr
in
rain mn
in
humidity
%
barometer
mb
20260507040504 45 179 0.0 0.9 0.00 0.56 0.00 90 1009.7
20260507040005 45 199 0.0 2.6 0.00 0.56 0.00 90 1009.9
20260507035504 45 168 0.0 2.6 0.00 0.56 0.56 90 1009.9
20260507035004 45 136 0.0 1.7 0.00 0.57 0.56 90 1009.8
20260507034504 45 151 0.0 0.9 0.00 0.57 0.56 91 1009.9
20260507034004 45 180 0.0 0.9 0.00 0.57 0.56 90 1010.0
20260507033504 45 225 0.0 0.9 0.00 0.58 0.56 90 1009.9
20260507033004 45 236 0.0 0.9 0.00 0.58 0.56 90 1009.8
20260507032504 45 227 0.0 1.7 0.00 0.58 0.56 90 1009.9
20260507032004 45 213 0.0 1.7 0.00 0.58 0.56 90 1009.8
20260507031504 45 150 0.0 0.9 0.00 0.58 0.56 90 1010.0
20260507031004 45 151 0.0 0.9 0.00 0.58 0.56 90 1010.0
20260507030504 45 142 0.0 0.9 0.00 0.58 0.56 89 1009.8
20260507030004 45 153 0.0 1.7 0.00 0.58 0.56 89 1009.9
20260507025504 45 170 0.0 1.7 0.00 0.59 0.56 89 1010.0
20260507025004 45 165 0.0 1.7 0.00 0.59 0.56 89 1010.0
20260507024504 45 176 0.0 1.7 0.00 0.59 0.56 89 1010.1
20260507024004 45 180 0.0 1.7 0.00 0.59 0.56 89 1010.2
20260507023504 45 164 0.0 1.7 0.00 0.59 0.56 89 1010.1
20260507023004 45 175 0.9 3.5 0.00 0.59 0.56 89 1010.3
20260507022504 45 193 0.9 6.1 0.00 0.59 0.56 89 1010.2
20260507022004 45 195 0.9 6.1 0.00 0.59 0.56 89 1010.2
20260507021504 45 196 0.9 2.6 0.00 0.59 0.56 90 1010.4
20260507021004 45 206 0.9 2.6 0.00 0.59 0.56 90 1010.3
20260507020504 45 196 0.9 2.6 0.00 0.59 0.56 90 1010.2
20260507020004 45 158 0.0 1.7 0.00 0.59 0.56 90 1010.3
20260507015504 45 145 0.0 2.6 0.00 0.59 0.56 89 1010.2
20260507015004 45 163 0.0 2.6 0.00 0.59 0.56 89 1010.1
20260507014504 45 167 0.0 2.6 0.00 0.59 0.56 89 1010.1
20260507014004 45 177 0.0 2.6 0.00 0.59 0.56 89 1010.1
20260507013504 45 220 0.0 1.7 0.00 0.59 0.56 89 1010.3
20260507013004 45 231 0.0 1.7 0.00 0.60 0.56 89 1010.3
20260507012504 45 233 0.0 3.5 0.00 0.60 0.56 89 1010.3
20260507012004 45 221 0.9 3.5 0.00 0.60 0.56 89 1010.4
20260507011504 44 212 0.0 1.7 0.00 0.60 0.56 89 1010.4
20260507011004 44 213 0.0 1.7 0.00 0.60 0.56 89 1010.3
20260507010504 44 212 0.0 1.7 0.00 0.61 0.56 89 1010.4
20260507010004 44 210 0.9 5.2 0.00 0.61 0.56 89 1010.3
20260507005504 44 213 0.0 5.2 0.00 0.62 0.56 89 1010.3
20260507005004 44 212 0.0 0.9 0.00 0.62 0.56 89 1010.2
20260507004504 44 199 0.0 0.9 0.00 0.62 0.56 89 1010.3
20260507004004 44 219 0.0 2.6 0.00 0.63 0.56 89 1010.3
20260507003504 45 209 0.0 2.6 0.00 0.63 0.56 89 1010.1
20260507003004 45 165 0.0 1.7 0.00 0.64 0.56 88 1010.2
20260507002504 45 196 0.0 0.9 0.00 0.64 0.56 88 1010.0
20260507002004 45 197 0.0 1.7 0.00 0.64 0.56 88 1010.2
20260507001504 45 200 0.0 1.7 0.00 0.65 0.56 88 1010.1
20260507001004 45 206 0.0 0.9 0.00 0.65 0.56 88 1009.9
20260507000505 46 201 0.0 0.9 0.00 0.65 0.56 87 1010.0
20260507000004 46 200 0.0 1.7 0.00 0.65 0.56 87 1009.9
20260506235504 46 197 0.0 1.7 0.00 0.66 0.56 86 1009.6
20260506235004 46 186 0.0 2.6 0.00 0.66 0.56 86 1009.6
20260506234504 46 192 0.9 2.6 0.00 0.66 0.56 85 1009.6
20260506234004 47 208 0.0 0.9 0.00 0.66 0.56 85 1009.5
20260506233504 47 208 0.0 0.9 0.00 0.67 0.56 85 1009.6
20260506233004 47 208 0.0 0.9 0.00 0.67 0.56 85 1009.6
20260506232504 47 208 0.0 0.9 0.00 0.68 0.56 86 1009.7
20260506232004 47 208 0.0 1.7 0.00 0.68 0.56 86 1009.5
20260506231504 47 208 0.0 1.7 0.00 0.69 0.56 85 1009.7
20260506231004 47 260 0.0 0.9 0.00 0.69 0.56 85 1009.4
20260506230504 47 260 0.0 0.9 0.00 0.70 0.56 84 1009.3
20260506230004 47 235 0.0 0.9 0.00 0.70 0.56 83 1009.3
20260506225504 47 195 0.0 0.9 0.00 0.70 0.56 83 1009.5
20260506225004 47 169 0.0 0.9 0.00 0.70 0.56 83 1009.5
20260506224504 48 169 0.0 0.9 0.00 0.70 0.56 81 1009.4
20260506224004 48 165 0.0 0.9 0.00 0.70 0.56 81 1009.4
20260506223504 48 182 0.0 0.9 0.00 0.70 0.56 80 1009.4
20260506223004 48 208 0.0 0.9 0.00 0.70 0.56 80 1009.4
20260506222504 48 207 0.0 0.9 0.00 0.70 0.56 81 1009.4
20260506222004 48 205 0.0 0.9 0.00 0.70 0.56 80 1009.4
20260506221504 48 205 0.0 0.9 0.00 0.70 0.56 80 1009.4
20260506221004 48 205 0.0 0.9 0.00 0.70 0.56 79 1009.4
20260506220504 48 205 0.0 0.9 0.00 0.70 0.56 79 1009.6
20260506220004 48 205 0.0 1.7 0.00 0.70 0.56 79 1009.3
20260506215504 48 205 0.0 1.7 0.00 0.70 0.56 79 1009.3
20260506215004 48 205 0.0 0.9 0.00 0.70 0.56 79 1009.4
20260506214504 48 205 0.0 1.7 0.00 0.70 0.56 78 1009.3
20260506214004 48 193 0.0 1.7 0.00 0.70 0.56 78 1009.5
20260506213504 48 167 0.0 0.9 0.00 0.70 0.56 79 1009.5
20260506213004 48 161 0.0 0.9 0.00 0.70 0.56 78 1009.0
20260506212504 48 172 0.0 2.6 0.00 0.70 0.56 78 1009.2
20260506212004 48 177 0.0 2.6 0.00 0.70 0.56 79 1009.2
20260506211504 49 188 0.0 1.7 0.00 0.70 0.56 77 1009.2
20260506211004 49 180 0.0 1.7 0.00 0.70 0.56 78 1009.2
20260506210504 49 187 0.0 1.7 0.00 0.70 0.56 78 1009.3
20260506210004 49 188 0.9 1.7 0.00 0.70 0.56 78 1009.1
20260506205504 48 184 0.9 1.7 0.00 0.70 0.56 78 1008.9
20260506205004 49 182 0.0 1.7 0.00 0.70 0.56 77 1009.1
20260506204504 50 190 0.0 0.9 0.00 0.70 0.56 75 1009.1
20260506204004 50 201 0.0 1.7 0.00 0.70 0.56 76 1009.3
20260506203504 49 179 0.0 2.6 0.00 0.70 0.56 77 1009.0
20260506203004 49 150 0.9 2.6 0.00 0.70 0.56 77 1009.1
20260506202504 49 147 0.9 3.5 0.00 0.70 0.56 78 1009.0
20260506202004 49 161 0.9 3.5 0.00 0.70 0.56 76 1009.0
20260506201504 50 174 0.9 3.5 0.00 0.70 0.56 74 1009.1
20260506201004 50 174 0.9 1.7 0.00 0.70 0.56 78 1009.0
20260506200504 49 172 0.9 1.7 0.00 0.70 0.56 78 1009.2
20260506200004 49 147 0.9 1.7 0.00 0.70 0.56 74 1009.1
20260506195504 49 77 0.9 2.6 0.00 0.70 0.56 75 1009.3
20260506195004 48 59 0.9 2.6 0.00 0.70 0.56 74 1009.2
20260506194504 49 108 0.9 1.7 0.00 0.70 0.56 76 1008.9
20260506194004 49 144 0.9 2.6 0.00 0.70 0.56 78 1008.9
20260506193504 49 148 0.9 2.6 0.00 0.70 0.56 78 1009.2
20260506193004 48 112 0.9 1.7 0.00 0.70 0.56 79 1009.2
20260506192504 48 344 0.9 2.6 0.00 0.70 0.56 79 1009.2
20260506192004 48 313 0.9 2.6 0.00 0.70 0.56 71 1009.3
20260506191504 48 333 0.9 2.6 0.00 0.70 0.56 71 1009.4
20260506191004 48 342 0.9 1.7 0.00 0.70 0.56 74 1009.4
20260506190504 48 345 0.9 2.6 0.00 0.70 0.56 75 1009.3
20260506190004 47 343 0.9 2.6 0.00 0.70 0.56 75 1009.4
20260506185504 47 345 0.9 1.7 0.00 0.70 0.56 77 1009.5
20260506185004 47 337 0.9 1.7 0.00 0.70 0.56 78 1009.3
20260506184504 47 348 0.9 1.7 0.00 0.70 0.56 77 1009.2
20260506184004 47 356 0.9 2.6 0.00 0.70 0.56 77 1009.2
20260506183504 47 357 0.9 2.6 0.00 0.70 0.56 78 1009.1
20260506183004 47 344 0.0 1.7 0.00 0.70 0.56 80 1009.2
20260506182504 47 331 0.9 3.5 0.00 0.70 0.56 81 1009.2
20260506182003 47 348 0.9 3.5 0.00 0.70 0.56 80 1009.2
20260506181504 47 45 0.9 1.7 0.00 0.70 0.56 81 1009.2
20260506181003 46 25 0.9 5.2 0.00 0.70 0.56 81 1009.1
20260506180504 46 13 1.7 5.2 0.00 0.70 0.56 81 1009.2
20260506180005 46 7 0.9 3.5 0.00 0.70 0.56 82 1009.3
20260506175504 46 17 0.9 2.6 0.00 0.70 0.56 83 1009.3
20260506175004 46 55 0.9 2.6 0.00 0.70 0.56 83 1009.1
20260506174504 47 87 0.0 2.6 0.00 0.70 0.56 83 1009.0
20260506174004 46 37 0.9 2.6 0.00 0.70 0.56 83 1009.1
20260506173503 46 3 1.7 3.5 0.00 0.70 0.56 85 1009.1
20260506173004 46 360 1.7 6.1 0.00 0.70 0.56 85 1009.1
20260506172503 46 356 1.7 6.1 0.00 0.70 0.56 84 1009.1
20260506172004 45 18 1.7 5.2 0.00 0.70 0.56 85 1009.1
20260506171504 45 28 1.7 5.2 0.00 0.70 0.56 84 1009.0
20260506171004 45 34 1.7 5.2 0.00 0.70 0.56 84 1009.0
20260506170504 46 50 1.7 5.2 0.00 0.70 0.56 84 1008.9
20260506170004 46 29 1.7 3.5 0.00 0.70 0.56 84 1008.8
20260506165504 46 40 1.7 5.2 0.00 0.70 0.56 86 1009.0
20260506165004 45 49 1.7 7.0 0.00 0.70 0.56 85 1008.9
20260506164504 45 35 2.6 7.0 0.00 0.70 0.56 85 1009.0
20260506164004 45 38 1.7 3.5 0.00 0.70 0.56 87 1009.2
20260506163504 45 56 1.7 7.0 0.00 0.70 0.56 86 1009.0
20260506163004 45 40 2.6 7.8 0.00 0.70 0.56 86 1009.0
20260506162504 45 25 2.6 7.8 0.00 0.70 0.56 87 1009.1
20260506162003 45 20 1.7 6.1 0.00 0.70 0.56 88 1009.1
20260506161504 45 24 1.7 5.2 0.00 0.70 0.56 87 1009.2
20260506161004 45 31 2.6 6.1 0.00 0.70 0.56 88 1009.4
20260506160504 44 23 2.6 6.1 0.00 0.70 0.56 87 1009.5
20260506160004 45 11 1.7 5.2 0.00 0.70 0.56 89 1009.6
20260506155503 45 8 1.7 6.1 0.00 0.70 0.56 91 1009.8
20260506155004 44 9 2.6 6.1 0.00 0.70 0.56 91 1009.7
20260506154504 44 2 2.6 6.1 0.00 0.70 0.56 90 1009.8
20260506154004 44 3 1.7 6.1 0.00 0.70 0.56 91 1009.9
20260506153503 44 3 2.6 3.5 0.00 0.70 0.56 90 1009.9
20260506153004 44 350 2.6 6.1 0.00 0.70 0.56 90 1009.7
20260506152503 44 2 2.6 6.1 0.00 0.70 0.56 91 1009.7
20260506152003 43 9 2.6 6.1 0.01 0.70 0.56 91 1009.6
20260506151504 44 3 1.7 6.1 0.01 0.70 0.56 91 1009.6
20260506151003 44 15 0.9 2.6 0.02 0.70 0.56 93 1009.6
20260506150504 44 9 0.9 5.2 0.03 0.70 0.56 92 1009.4
20260506150004 43 343 1.7 5.2 0.03 0.70 0.56 92 1009.7
20260506145503 43 356 1.7 6.1 0.04 0.70 0.56 92 1009.3
20260506145003 44 22 1.7 6.1 0.04 0.70 0.56 92 1009.5
20260506144503 43 20 1.7 7.0 0.05 0.70 0.56 93 1009.5
20260506144003 43 22 1.7 7.0 0.05 0.70 0.56 93 1009.5
20260506143504 44 28 0.9 2.6 0.06 0.70 0.56 94 1009.5
20260506143004 44 11 0.9 2.6 0.06 0.70 0.56 94 1009.3
20260506142504 44 21 1.7 5.2 0.07 0.70 0.56 95 1009.4
20260506142003 43 23 1.7 5.2 0.07 0.69 0.55 94 1009.2
20260506141504 43 1 0.9 3.5 0.08 0.69 0.55 95 1009.4
20260506141003 43 347 1.7 5.2 0.07 0.68 0.54 95 1009.5
20260506140503 43 349 0.9 5.2 0.07 0.67 0.53 95 1009.4
20260506140004 43 356 0.9 3.5 0.08 0.67 0.53 95 1009.5
20260506135503 43 20 0.9 2.6 0.07 0.66 0.52 95 1009.6
20260506135004 43 20 0.9 2.6 0.08 0.66 0.52 95 1009.7
20260506134504 43 13 0.9 2.6 0.08 0.65 0.51 95 1009.6
20260506134004 43 18 0.9 2.6 0.09 0.65 0.51 95 1009.4
20260506133504 43 25 0.9 2.6 0.08 0.64 0.50 95 1009.2
20260506133004 43 19 0.9 2.6 0.09 0.64 0.50 95 1009.3
20260506132503 43 360 0.9 1.7 0.08 0.63 0.49 96 1009.3
20260506132003 43 17 0.9 3.5 0.08 0.62 0.48 96 1009.4
20260506131503 43 9 0.9 3.5 0.07 0.61 0.47 96 1009.4
20260506131004 43 10 0.9 3.5 0.08 0.61 0.47 96 1009.4
20260506130503 43 9 0.9 1.7 0.07 0.60 0.46 96 1009.3
20260506130004 43 17 0.9 1.7 0.07 0.59 0.45 96 1009.6
20260506125503 43 24 0.9 3.5 0.07 0.59 0.45 96 1009.6
20260506125004 43 12 0.9 3.5 0.06 0.58 0.44 96 1009.4
20260506124504 43 20 0.9 5.2 0.05 0.57 0.43 96 1009.4
20260506124004 42 24 0.9 5.2 0.05 0.56 0.42 95 1009.5
20260506123503 42 26 0.9 2.6 0.05 0.56 0.42 95 1009.3
20260506123003 42 53 0.9 2.6 0.05 0.55 0.41 95 1009.4
20260506122503 42 100 0.0 1.7 0.06 0.55 0.41 95 1009.6
20260506122003 42 76 0.0 1.7 0.05 0.54 0.40 95 1009.6
20260506121503 42 49 0.9 3.5 0.06 0.54 0.40 95 1009.6
20260506121004 42 63 0.9 3.5 0.05 0.53 0.39 95 1009.3
20260506120503 43 109 0.0 1.7 0.05 0.53 0.39 96 1009.5
20260506120004 43 27 0.0 2.6 0.05 0.52 0.38 96 1009.5
20260506115503 42 26 0.9 2.6 0.05 0.52 0.38 96 1009.5
20260506115003 42 25 0.9 2.6 0.05 0.52 0.38 96 1009.6
20260506114503 42 14 0.9 2.6 0.06 0.52 0.38 96 1009.3
20260506114003 42 6 0.9 2.6 0.05 0.51 0.37 97 1009.4
20260506113503 42 355 0.0 1.7 0.06 0.51 0.37 97 1009.5
20260506113003 43 329 0.0 1.7 0.05 0.50 0.36 97 1009.8
20260506112503 43 256 0.0 0.9 0.05 0.49 0.35 97 1009.4
20260506112003 43 256 0.0 0.9 0.06 0.49 0.35 97 1009.8
20260506111503 43 256 0.0 0.9 0.06 0.48 0.34 97 1009.8
20260506111004 43 256 0.0 0.9 0.06 0.48 0.34 97 1009.8
20260506110504 43 256 0.0 0.9 0.07 0.48 0.34 97 1009.8
20260506110004 43 256 0.0 0.9 0.07 0.47 0.33 97 1009.8
20260506105503 43 0 0.0 0.0 0.07 0.47 0.33 97 1009.8
20260506105003 43 0 0.0 0.0 0.08 0.47 0.33 97 1009.7
20260506104503 43 0 0.0 0.0 0.08 0.46 0.32 97 1009.8
20260506104003 42 0 0.0 0.0 0.08 0.46 0.32 97 1009.7
20260506103503 42 0 0.0 0.0 0.08 0.45 0.31 97 1009.6
20260506103003 42 0 0.0 0.0 0.08 0.45 0.31 97 1009.7
20260506102503 42 0 0.0 0.0 0.08 0.44 0.30 97 1009.5
20260506102003 42 0 0.0 0.0 0.07 0.43 0.29 97 1009.8
20260506101504 42 0 0.0 0.0 0.07 0.42 0.28 97 1009.6
20260506101004 42 0 0.0 0.0 0.08 0.42 0.28 97 1009.4
20260506100503 43 0 0.0 0.0 0.07 0.41 0.27 97 1009.6
20260506100004 43 0 0.0 0.0 0.07 0.40 0.26 97 1009.6
20260506095504 43 256 0.0 0.9 0.07 0.40 0.26 97 1009.5
20260506095004 43 256 0.0 0.9 0.07 0.39 0.25 97 1009.6
20260506094503 43 0 0.0 0.0 0.07 0.38 0.24 97 1009.6
20260506094003 43 0 0.0 0.0 0.08 0.38 0.24 97 1009.7
20260506093503 43 256 0.0 0.9 0.08 0.37 0.23 97 1009.7
20260506093004 43 256 0.0 0.9 0.09 0.38 0.23 97 1009.3
20260506092504 43 0 0.0 0.0 0.09 0.37 0.22 97 1009.1
20260506092003 43 0 0.0 0.0 0.09 0.37 0.22 97 1009.1
20260506091504 43 0 0.0 0.0 0.09 0.36 0.21 97 1009.2
20260506091004 43 0 0.0 0.0 0.09 0.38 0.20 97 1009.2
20260506090504 43 0 0.0 0.0 0.09 0.40 0.20 97 1009.4
20260506090003 43 0 0.0 0.0 0.08 0.40 0.19 97 1009.4
20260506085504 43 0 0.0 0.0 0.08 0.40 0.19 97 1009.4
20260506085004 44 257 0.0 0.9 0.07 0.39 0.18 97 1009.4
20260506084503 44 257 0.0 0.9 0.06 0.38 0.17 97 1009.6
20260506084003 43 256 0.0 0.9 0.05 0.37 0.16 97 1009.5
20260506083503 44 256 0.0 1.7 0.05 0.36 0.15 97 1009.9
20260506083004 44 256 0.0 1.7 0.04 0.35 0.14 97 1010.1
20260506082504 44 256 0.0 0.9 0.03 0.34 0.13 97 1009.9
20260506082004 44 268 0.0 0.9 0.03 0.34 0.13 97 1009.7
20260506081503 44 292 0.9 2.6 0.02 0.33 0.12 97 1009.9
20260506081003 44 324 0.9 2.6 0.01 0.32 0.11 97 1009.9
20260506080503 44 349 0.9 2.6 0.01 0.32 0.11 97 1010.0
20260506073503 44 268 0.0 0.9 0.00 0.31 0.10 97 1009.1
20260506073003 44 269 0.0 0.9 0.01 0.31 0.10 97 1009.2
20260506072503 44 274 0.0 2.6 0.01 0.31 0.10 97 1009.4
20260506072003 44 284 0.0 2.6 0.01 0.31 0.10 97 1009.4
20260506071503 44 315 0.0 1.7 0.02 0.31 0.10 97 1009.4
20260506071003 44 305 0.0 1.7 0.03 0.31 0.10 97 1009.4
20260506070504 44 287 0.0 0.9 0.03 0.31 0.10 97 1009.4
20260506062503 44 231 0.0 0.9 0.08 0.30 0.09 97 1009.5
20260506062003 44 315 0.0 0.9 0.09 0.30 0.09 97 1009.4
20260506061503 44 217 0.0 1.7 0.08 0.29 0.08 97 1009.2
20260506061003 44 197 0.9 2.6 0.07 0.28 0.07 97 1009.2
20260506060504 44 177 0.9 3.5 0.07 0.28 0.07 97 1009.0
20260506051003 45 212 0.0 1.7 0.00 0.21 0.00 96 1009.9
20260506050503 45 212 0.0 1.7 0.00 0.21 0.00 96 1010.0
20260506045003 45 229 0.0 1.7 0.01 0.21 0.00 96 1009.7
20260506044503 45 206 0.0 2.6 0.01 0.21 0.00 96 1010.0
20260506044003 45 157 0.0 2.6 0.01 0.21 0.00 96 1010.0
20260506043503 45 236 0.0 2.6 0.02 0.21 0.00 96 1010.2
20260506043003 45 249 0.0 2.6 0.02 0.21 0.00 96 1010.2
20260506042503 45 259 0.0 2.6 0.02 0.21 0.00 96 1009.9
20260506042003 45 249 0.0 2.6 0.02 0.21 0.00 96 1009.9
20260506041503 45 250 0.0 1.7 0.02 0.21 0.00 96 1009.8
20260506041003 45 200 0.0 2.6 0.02 0.21 0.00 96 1009.6